| time (UTC) | temp C | wind direction | speed KPH | gust KPH | rain 1hr cm | rain 24hr cm | rain mn cm | humidity % | barometer mb |
| 20260508044012 | 5 | 240 | 0.0 | 0.0 | 0.00 | 0.13 | 0.05 | 69 | 1017.6 |
| 20260508043507 | 5 | 240 | 0.0 | 0.0 | 0.00 | 0.13 | 0.05 | 69 | 1017.6 |
| 20260508043018 | 5 | 240 | 0.0 | 0.0 | 0.00 | 0.13 | 0.05 | 68 | 1017.5 |
| 20260508042515 | 5 | 240 | 0.0 | 0.0 | 0.00 | 0.13 | 0.05 | 68 | 1017.4 |
| 20260508042007 | 6 | 240 | 0.0 | 0.0 | 0.00 | 0.13 | 0.05 | 68 | 1017.4 |
| 20260508041518 | 6 | 240 | 0.0 | 0.0 | 0.00 | 0.13 | 0.05 | 67 | 1017.3 |
| 20260508041013 | 6 | 240 | 0.0 | 0.0 | 0.00 | 0.13 | 0.05 | 67 | 1017.2 |
| 20260508040512 | 6 | 240 | 0.0 | 0.0 | 0.00 | 0.13 | 0.05 | 67 | 1017.2 |
| 20260508040041 | 6 | 240 | 0.0 | 0.0 | 0.00 | 0.13 | 0.05 | 66 | 1017.1 |
| 20260508035536 | 6 | 240 | 0.0 | 0.0 | 0.00 | 0.13 | 0.05 | 66 | 1017.1 |
| 20260508035032 | 6 | 240 | 0.0 | 3.2 | 0.00 | 0.18 | 0.05 | 66 | 1017.1 |
| 20260508034543 | 6 | 240 | 0.0 | 3.2 | 0.00 | 0.18 | 0.05 | 66 | 1017.0 |
| 20260508034037 | 6 | 240 | 0.0 | 0.0 | 0.00 | 0.18 | 0.05 | 66 | 1016.9 |
| 20260508033533 | 6 | 240 | 0.0 | 0.0 | 0.00 | 0.18 | 0.05 | 65 | 1016.8 |
| 20260508033047 | 6 | 240 | 0.0 | 3.2 | 0.00 | 0.18 | 0.05 | 65 | 1016.9 |
| 20260508032540 | 6 | 229 | 0.0 | 3.2 | 0.00 | 0.18 | 0.05 | 64 | 1016.9 |
| 20260508032038 | 6 | 229 | 0.0 | 1.6 | 0.00 | 0.18 | 0.05 | 65 | 1016.8 |
| 20260508031549 | 7 | 229 | 0.0 | 1.6 | 0.00 | 0.18 | 0.05 | 64 | 1016.8 |
| 20260508031042 | 7 | 222 | 0.0 | 0.0 | 0.00 | 0.18 | 0.05 | 64 | 1016.7 |
| 20260508030538 | 7 | 222 | 0.0 | 0.0 | 0.00 | 0.18 | 0.05 | 63 | 1016.8 |
| 20260508030049 | 7 | 222 | 0.0 | 0.0 | 0.00 | 0.18 | 0.05 | 63 | 1016.6 |
| 20260508025542 | 7 | 222 | 0.0 | 0.0 | 0.00 | 0.18 | 0.05 | 62 | 1016.8 |
| 20260508025036 | 7 | 222 | 0.0 | 0.0 | 0.00 | 0.23 | 0.05 | 62 | 1016.6 |
| 20260508024554 | 7 | 222 | 0.0 | 0.0 | 0.00 | 0.23 | 0.05 | 63 | 1016.5 |
| 20260508024044 | 7 | 222 | 0.0 | 0.0 | 0.00 | 0.23 | 0.05 | 61 | 1016.5 |
| 20260508023540 | 7 | 222 | 0.0 | 0.0 | 0.00 | 0.23 | 0.05 | 60 | 1016.5 |
| 20260508023052 | 8 | 222 | 0.0 | 0.0 | 0.00 | 0.23 | 0.05 | 59 | 1016.5 |
| 20260508022547 | 8 | 96 | 0.0 | 0.0 | 0.00 | 0.23 | 0.05 | 59 | 1016.4 |
| 20260508022043 | 8 | 96 | 0.0 | 0.0 | 0.00 | 0.23 | 0.05 | 59 | 1016.1 |
| 20260508021556 | 8 | 96 | 0.0 | 0.0 | 0.00 | 0.23 | 0.05 | 59 | 1016.1 |
| 20260508021051 | 8 | 96 | 0.0 | 0.0 | 0.00 | 0.23 | 0.05 | 57 | 1016.0 |
| 20260508020547 | 8 | 262 | 0.0 | 0.0 | 0.00 | 0.23 | 0.05 | 57 | 1016.0 |
| 20260508020058 | 8 | 262 | 0.0 | 0.0 | 0.00 | 0.23 | 0.05 | 57 | 1015.8 |
| 20260508015550 | 8 | 262 | 0.0 | 0.0 | 0.00 | 0.23 | 0.05 | 57 | 1015.8 |
| 20260508015046 | 8 | 262 | 0.0 | 3.2 | 0.00 | 0.23 | 0.05 | 56 | 1015.8 |
| 20260508014559 | 8 | 262 | 0.0 | 3.2 | 0.00 | 0.23 | 0.05 | 57 | 1015.6 |
| 20260508014055 | 9 | 262 | 0.0 | 3.2 | 0.00 | 0.23 | 0.05 | 56 | 1015.6 |
| 20260508013548 | 9 | 257 | 0.0 | 3.2 | 0.00 | 0.23 | 0.05 | 55 | 1015.6 |
| 20260508013032 | 9 | 257 | 0.0 | 0.0 | 0.00 | 0.23 | 0.05 | 53 | 1015.4 |
| 20260508012514 | 10 | 257 | 0.0 | 3.2 | 0.00 | 0.23 | 0.05 | 52 | 1015.3 |
| 20260508012008 | 10 | 257 | 0.0 | 4.8 | 0.00 | 0.23 | 0.05 | 51 | 1015.3 |
| 20260508011522 | 10 | 257 | 1.6 | 4.8 | 0.00 | 0.23 | 0.05 | 52 | 1015.2 |
| 20260508011016 | 11 | 257 | 0.0 | 3.2 | 0.00 | 0.23 | 0.05 | 51 | 1015.2 |
| 20260508010512 | 11 | 257 | 0.0 | 3.2 | 0.00 | 0.23 | 0.05 | 49 | 1015.0 |
| 20260508010025 | 11 | 213 | 0.0 | 4.8 | 0.00 | 0.23 | 0.05 | 46 | 1015.0 |
| 20260508005522 | 11 | 171 | 1.6 | 6.4 | 0.00 | 0.23 | 0.05 | 46 | 1014.9 |
| 20260508005019 | 11 | 318 | 0.0 | 6.4 | 0.00 | 0.23 | 0.05 | 48 | 1014.8 |
| 20260508004537 | 11 | 271 | 0.0 | 6.4 | 0.00 | 0.23 | 0.05 | 46 | 1014.8 |
| 20260508004025 | 11 | 269 | 1.6 | 8.0 | 0.00 | 0.23 | 0.05 | 46 | 1014.8 |
| 20260508003518 | 12 | 210 | 1.6 | 8.0 | 0.00 | 0.23 | 0.05 | 44 | 1014.7 |
| 20260508003032 | 12 | 246 | 1.6 | 11.3 | 0.00 | 0.23 | 0.05 | 45 | 1014.7 |
| 20260508002526 | 12 | 256 | 4.8 | 11.3 | 0.00 | 0.23 | 0.05 | 45 | 1014.6 |
| 20260508002021 | 12 | 217 | 3.2 | 9.7 | 0.00 | 0.23 | 0.05 | 45 | 1014.5 |
| 20260508001535 | 12 | 218 | 1.6 | 6.4 | 0.00 | 0.23 | 0.05 | 48 | 1014.4 |
| 20260508001026 | 12 | 243 | 1.6 | 4.8 | 0.00 | 0.23 | 0.05 | 48 | 1014.4 |
| 20260508000522 | 12 | 233 | 0.0 | 8.0 | 0.00 | 0.23 | 0.05 | 46 | 1014.3 |
| 20260508000034 | 12 | 211 | 1.6 | 8.0 | 0.00 | 0.23 | 0.05 | 44 | 1014.2 |
| 20260507235530 | 13 | 221 | 1.6 | 14.5 | 0.00 | 0.23 | 0.05 | 43 | 1014.3 |
| 20260507235026 | 13 | 185 | 1.6 | 14.5 | 0.00 | 0.23 | 0.05 | 43 | 1014.2 |
| 20260507234536 | 13 | 186 | 1.6 | 8.0 | 0.00 | 0.23 | 0.05 | 43 | 1014.1 |
| 20260507234027 | 13 | 194 | 3.2 | 8.0 | 0.00 | 0.23 | 0.05 | 42 | 1014.1 |
| 20260507233520 | 13 | 269 | 3.2 | 8.0 | 0.00 | 0.23 | 0.05 | 42 | 1014.1 |
| 20260507233037 | 13 | 211 | 1.6 | 14.5 | 0.00 | 0.23 | 0.05 | 42 | 1014.0 |
| 20260507232530 | 13 | 215 | 6.4 | 22.5 | 0.00 | 0.23 | 0.05 | 41 | 1014.0 |
| 20260507232024 | 13 | 187 | 6.4 | 22.5 | 0.00 | 0.23 | 0.05 | 41 | 1014.0 |
| 20260507231540 | 14 | 198 | 6.4 | 16.1 | 0.00 | 0.23 | 0.05 | 40 | 1013.8 |
| 20260507231030 | 14 | 276 | 4.8 | 16.1 | 0.00 | 0.23 | 0.05 | 40 | 1013.9 |
| 20260507230526 | 14 | 202 | 4.8 | 12.9 | 0.00 | 0.23 | 0.05 | 41 | 1013.7 |
| 20260507230038 | 14 | 238 | 4.8 | 16.1 | 0.00 | 0.23 | 0.05 | 40 | 1013.9 |
| 20260507225533 | 15 | 207 | 4.8 | 19.3 | 0.00 | 0.23 | 0.05 | 41 | 1013.7 |
| 20260507225028 | 15 | 252 | 3.2 | 11.3 | 0.00 | 0.28 | 0.05 | 41 | 1013.8 |
| 20260507224541 | 15 | 166 | 4.8 | 11.3 | 0.00 | 0.28 | 0.05 | 41 | 1013.7 |
| 20260507224038 | 15 | 196 | 3.2 | 9.7 | 0.00 | 0.28 | 0.05 | 42 | 1013.6 |
| 20260507223528 | 14 | 196 | 3.2 | 14.5 | 0.00 | 0.28 | 0.05 | 42 | 1013.7 |
| 20260507223043 | 14 | 219 | 8.0 | 14.5 | 0.00 | 0.28 | 0.05 | 41 | 1013.6 |
| 20260507222533 | 14 | 240 | 4.8 | 11.3 | 0.00 | 0.28 | 0.05 | 42 | 1013.8 |
| 20260507222027 | 14 | 213 | 4.8 | 16.1 | 0.00 | 0.28 | 0.05 | 42 | 1013.7 |
| 20260507221538 | 14 | 193 | 8.0 | 16.1 | 0.00 | 0.28 | 0.05 | 42 | 1013.7 |
| 20260507221032 | 14 | 209 | 4.8 | 12.9 | 0.00 | 0.28 | 0.05 | 43 | 1013.6 |
| 20260507220524 | 14 | 215 | 4.8 | 16.1 | 0.00 | 0.28 | 0.05 | 43 | 1013.5 |
| 20260507220038 | 14 | 229 | 6.4 | 16.1 | 0.00 | 0.28 | 0.05 | 43 | 1013.4 |
| 20260507215530 | 14 | 190 | 3.2 | 16.1 | 0.00 | 0.28 | 0.05 | 43 | 1013.4 |
| 20260507215023 | 15 | 192 | 6.4 | 17.7 | 0.00 | 0.36 | 0.05 | 42 | 1013.3 |
| 20260507214545 | 15 | 299 | 9.7 | 20.9 | 0.00 | 0.36 | 0.05 | 41 | 1013.2 |
| 20260507214027 | 15 | 249 | 8.0 | 20.9 | 0.00 | 0.36 | 0.05 | 42 | 1013.1 |
| 20260507213521 | 15 | 249 | 3.2 | 20.9 | 0.00 | 0.36 | 0.05 | 44 | 1013.3 |
| 20260507213033 | 15 | 263 | 3.2 | 24.1 | 0.00 | 0.36 | 0.05 | 43 | 1013.2 |
| 20260507212525 | 15 | 344 | 6.4 | 14.5 | 0.00 | 0.36 | 0.05 | 44 | 1013.2 |
| 20260507212018 | 15 | 234 | 4.8 | 16.1 | 0.00 | 0.36 | 0.05 | 43 | 1013.1 |
| 20260507211532 | 15 | 278 | 6.4 | 17.7 | 0.00 | 0.36 | 0.05 | 42 | 1013.2 |
| 20260507211026 | 15 | 232 | 8.0 | 17.7 | 0.00 | 0.36 | 0.05 | 41 | 1013.1 |
| 20260507210519 | 16 | 246 | 4.8 | 17.7 | 0.00 | 0.36 | 0.05 | 41 | 1012.9 |
| 20260507210047 | 16 | 227 | 4.8 | 17.7 | 0.00 | 0.36 | 0.05 | 40 | 1012.9 |
| 20260507205525 | 16 | 273 | 3.2 | 16.1 | 0.00 | 0.36 | 0.05 | 40 | 1012.9 |
| 20260507205018 | 16 | 286 | 1.6 | 25.7 | 0.00 | 0.48 | 0.05 | 43 | 1012.7 |
| 20260507204529 | 16 | 347 | 8.0 | 17.7 | 0.00 | 0.48 | 0.05 | 40 | 1013.0 |
| 20260507204025 | 16 | 329 | 4.8 | 16.1 | 0.00 | 0.48 | 0.05 | 42 | 1012.8 |
| 20260507203516 | 16 | 355 | 4.8 | 16.1 | 0.00 | 0.48 | 0.05 | 42 | 1012.8 |
| 20260507203028 | 16 | 161 | 1.6 | 17.7 | 0.00 | 0.48 | 0.05 | 45 | 1012.8 |
| 20260507202523 | 15 | 277 | 6.4 | 16.1 | 0.00 | 0.48 | 0.05 | 43 | 1012.9 |
| 20260507202018 | 15 | 16 | 1.6 | 12.9 | 0.00 | 0.48 | 0.05 | 44 | 1012.8 |
| 20260507201530 | 15 | 211 | 4.8 | 25.7 | 0.00 | 0.48 | 0.05 | 43 | 1013.0 |
| 20260507201027 | 15 | 284 | 11.3 | 25.7 | 0.00 | 0.48 | 0.05 | 43 | 1013.0 |
| 20260507200519 | 15 | 66 | 8.0 | 19.3 | 0.00 | 0.48 | 0.05 | 43 | 1013.1 |
| 20260507200036 | 15 | 205 | 3.2 | 14.5 | 0.00 | 0.48 | 0.05 | 45 | 1013.0 |
| 20260507195524 | 15 | 232 | 4.8 | 14.5 | 0.00 | 0.48 | 0.05 | 45 | 1013.3 |
| 20260507195019 | 15 | 238 | 1.6 | 24.1 | 0.00 | 0.51 | 0.05 | 48 | 1013.5 |
| 20260507194550 | 14 | 202 | 4.8 | 24.1 | 0.00 | 0.51 | 0.05 | 46 | 1013.5 |
| 20260507194021 | 15 | 222 | 9.7 | 16.1 | 0.00 | 0.51 | 0.05 | 46 | 1013.7 |
| 20260507193515 | 15 | 316 | 3.2 | 17.7 | 0.00 | 0.51 | 0.05 | 46 | 1013.7 |
| 20260507193032 | 15 | 294 | 4.8 | 20.9 | 0.00 | 0.51 | 0.05 | 45 | 1013.6 |
| 20260507192522 | 15 | 244 | 6.4 | 25.7 | 0.00 | 0.51 | 0.05 | 47 | 1013.6 |
| 20260507192016 | 14 | 219 | 6.4 | 25.7 | 0.00 | 0.51 | 0.05 | 49 | 1013.6 |
| 20260507191530 | 14 | 259 | 8.0 | 17.7 | 0.00 | 0.51 | 0.05 | 48 | 1013.7 |
| 20260507191023 | 14 | 229 | 4.8 | 11.3 | 0.00 | 0.51 | 0.05 | 49 | 1013.6 |
| 20260507190518 | 14 | 272 | 4.8 | 16.1 | 0.00 | 0.51 | 0.05 | 49 | 1013.7 |
| 20260507190033 | 14 | 196 | 8.0 | 16.1 | 0.00 | 0.51 | 0.05 | 49 | 1013.7 |
| 20260507185523 | 14 | 290 | 3.2 | 14.5 | 0.00 | 0.51 | 0.05 | 48 | 1013.6 |
| 20260507185020 | 14 | 267 | 3.2 | 14.5 | 0.00 | 0.51 | 0.05 | 49 | 1013.7 |
| 20260507184531 | 14 | 131 | 3.2 | 16.1 | 0.00 | 0.51 | 0.05 | 48 | 1013.5 |
| 20260507184022 | 14 | 267 | 3.2 | 12.9 | 0.00 | 0.51 | 0.05 | 49 | 1013.6 |
| 20260507183515 | 14 | 212 | 1.6 | 12.9 | 0.00 | 0.51 | 0.05 | 49 | 1013.7 |
| 20260507183034 | 14 | 236 | 8.0 | 12.9 | 0.00 | 0.51 | 0.05 | 48 | 1013.6 |
| 20260507182520 | 14 | 225 | 0.0 | 16.1 | 0.00 | 0.51 | 0.05 | 50 | 1013.9 |
| 20260507182014 | 14 | 298 | 6.4 | 16.1 | 0.00 | 0.51 | 0.05 | 49 | 1013.9 |
| 20260507181526 | 14 | 124 | 4.8 | 12.9 | 0.00 | 0.51 | 0.05 | 50 | 1013.7 |
| 20260507181021 | 13 | 337 | 6.4 | 12.9 | 0.00 | 0.51 | 0.05 | 53 | 1013.9 |
| 20260507180516 | 13 | 209 | 1.6 | 11.3 | 0.00 | 0.51 | 0.05 | 53 | 1013.9 |
| 20260507180054 | 13 | 209 | 6.4 | 16.1 | 0.00 | 0.51 | 0.05 | 52 | 1014.0 |
| 20260507175545 | 13 | 330 | 6.4 | 17.7 | 0.00 | 0.51 | 0.05 | 52 | 1014.0 |
| 20260507175039 | 13 | 201 | 9.7 | 17.7 | 0.00 | 0.53 | 0.05 | 51 | 1013.9 |
| 20260507174552 | 13 | 305 | 3.2 | 8.0 | 0.00 | 0.53 | 0.05 | 54 | 1013.8 |
| 20260507174047 | 13 | 328 | 0.0 | 11.3 | 0.00 | 0.53 | 0.05 | 55 | 1014.0 |
| 20260507173539 | 13 | 203 | 4.8 | 16.1 | 0.00 | 0.53 | 0.05 | 54 | 1014.1 |
| 20260507173052 | 13 | 221 | 6.4 | 16.1 | 0.00 | 0.53 | 0.05 | 54 | 1014.1 |
| 20260507172545 | 13 | 298 | 6.4 | 14.5 | 0.00 | 0.53 | 0.05 | 54 | 1014.1 |
| 20260507172038 | 13 | 265 | 6.4 | 12.9 | 0.00 | 0.53 | 0.05 | 54 | 1014.2 |
| 20260507171551 | 13 | 25 | 1.6 | 14.5 | 0.00 | 0.53 | 0.05 | 56 | 1014.2 |
| 20260507171043 | 13 | 273 | 3.2 | 14.5 | 0.00 | 0.53 | 0.05 | 58 | 1014.3 |
| 20260507170535 | 13 | 209 | 3.2 | 11.3 | 0.00 | 0.53 | 0.05 | 59 | 1014.2 |
| 20260507170045 | 12 | 288 | 0.0 | 11.3 | 0.00 | 0.53 | 0.05 | 61 | 1014.5 |
| 20260507165538 | 12 | 157 | 3.2 | 11.3 | 0.00 | 0.53 | 0.05 | 58 | 1014.4 |
| 20260507165030 | 12 | 285 | 6.4 | 12.9 | 0.00 | 0.53 | 0.05 | 56 | 1014.6 |
| 20260507164542 | 12 | 260 | 4.8 | 11.3 | 0.00 | 0.53 | 0.05 | 61 | 1014.7 |
| 20260507164036 | 12 | 317 | 1.6 | 11.3 | 0.00 | 0.53 | 0.05 | 65 | 1014.7 |
| 20260507163530 | 12 | 300 | 3.2 | 11.3 | 0.00 | 0.53 | 0.05 | 62 | 1014.8 |
| 20260507163043 | 12 | 130 | 1.6 | 12.9 | 0.00 | 0.53 | 0.05 | 65 | 1014.8 |
| 20260507162536 | 12 | 15 | 1.6 | 14.5 | 0.00 | 0.53 | 0.05 | 63 | 1014.9 |
| 20260507162029 | 12 | 255 | 6.4 | 14.5 | 0.00 | 0.53 | 0.05 | 64 | 1015.0 |
| 20260507161500 | 12 | 198 | 3.2 | 14.5 | 0.00 | 0.53 | 0.05 | 64 | 1014.9 |
| 20260507161055 | 12 | 275 | 8.0 | 17.7 | 0.00 | 0.53 | 0.05 | 64 | 1014.9 |
| 20260507160547 | 12 | 346 | 4.8 | 19.3 | 0.00 | 0.53 | 0.05 | 63 | 1015.0 |
| 20260507160120 | 12 | 208 | 8.0 | 16.1 | 0.00 | 0.53 | 0.05 | 64 | 1015.1 |
| 20260507155053 | 12 | 244 | 4.8 | 12.9 | 0.00 | 0.56 | 0.05 | 66 | 1015.2 |
| 20260507154607 | 12 | 144 | 3.2 | 12.9 | 0.00 | 0.56 | 0.05 | 65 | 1015.3 |
| 20260507154055 | 12 | 317 | 4.8 | 12.9 | 0.00 | 0.56 | 0.05 | 64 | 1015.4 |
| 20260507153547 | 12 | 246 | 0.0 | 11.3 | 0.00 | 0.56 | 0.05 | 66 | 1015.4 |
| 20260507153058 | 12 | 252 | 3.2 | 11.3 | 0.00 | 0.56 | 0.05 | 65 | 1015.3 |
| 20260507152554 | 11 | 235 | 1.6 | 16.1 | 0.00 | 0.56 | 0.05 | 64 | 1015.3 |
| 20260507152047 | 11 | 207 | 4.8 | 16.1 | 0.00 | 0.56 | 0.05 | 63 | 1015.4 |
| 20260507151558 | 11 | 30 | 3.2 | 9.7 | 0.00 | 0.56 | 0.05 | 66 | 1015.2 |
| 20260507151052 | 11 | 231 | 1.6 | 16.1 | 0.00 | 0.56 | 0.05 | 66 | 1015.4 |
| 20260507150545 | 11 | 260 | 3.2 | 11.3 | 0.00 | 0.56 | 0.05 | 67 | 1015.6 |
| 20260507150058 | 11 | 205 | 0.0 | 12.9 | 0.00 | 0.56 | 0.05 | 67 | 1015.4 |
| 20260507145548 | 11 | 284 | 8.0 | 12.9 | 0.00 | 0.56 | 0.05 | 68 | 1015.5 |
| 20260507145037 | 11 | 348 | 1.6 | 12.9 | 0.00 | 0.64 | 0.05 | 70 | 1015.4 |
| 20260507144548 | 11 | 199 | 4.8 | 12.9 | 0.00 | 0.64 | 0.05 | 73 | 1015.5 |
| 20260507144042 | 11 | 211 | 0.0 | 6.4 | 0.00 | 0.64 | 0.05 | 76 | 1015.5 |
| 20260507143535 | 10 | 19 | 1.6 | 4.8 | 0.00 | 0.64 | 0.05 | 82 | 1015.6 |
| 20260507143046 | 10 | 131 | 0.0 | 11.3 | 0.00 | 0.64 | 0.05 | 81 | 1015.8 |
| 20260507142539 | 10 | 261 | 3.2 | 11.3 | 0.00 | 0.64 | 0.05 | 78 | 1015.8 |
| 20260507142030 | 10 | 211 | 3.2 | 9.7 | 0.00 | 0.64 | 0.05 | 83 | 1016.0 |
| 20260507141544 | 10 | 292 | 1.6 | 9.7 | 0.00 | 0.64 | 0.05 | 85 | 1016.0 |
| 20260507141038 | 10 | 71 | 0.0 | 1.6 | 0.00 | 0.64 | 0.05 | 87 | 1016.1 |
| 20260507140531 | 10 | 92 | 0.0 | 0.0 | 0.00 | 0.64 | 0.05 | 87 | 1016.2 |
| 20260507140008 | 9 | 221 | 0.0 | 4.8 | 0.00 | 0.64 | 0.05 | 88 | 1016.2 |
| 20260507135557 | 9 | 221 | 0.0 | 4.8 | 0.00 | 0.64 | 0.05 | 88 | 1016.2 |
| 20260507135050 | 9 | 219 | 1.6 | 4.8 | 0.00 | 0.66 | 0.05 | 89 | 1016.2 |
| 20260507134502 | 9 | 242 | 1.6 | 4.8 | 0.00 | 0.66 | 0.05 | 90 | 1016.2 |
| 20260507134055 | 8 | 270 | 0.0 | 8.0 | 0.00 | 0.66 | 0.05 | 90 | 1016.3 |
| 20260507133548 | 8 | 270 | 3.2 | 8.0 | 0.00 | 0.66 | 0.05 | 92 | 1016.3 |
| 20260507133106 | 9 | 257 | 0.0 | 3.2 | 0.00 | 0.66 | 0.05 | 94 | 1016.3 |
| 20260507132551 | 8 | 257 | 0.0 | 3.2 | 0.00 | 0.66 | 0.05 | 94 | 1016.3 |
| 20260507132044 | 8 | 257 | 0.0 | 4.8 | 0.00 | 0.66 | 0.05 | 94 | 1016.3 |
| 20260507131612 | 8 | 236 | 0.0 | 4.8 | 0.00 | 0.66 | 0.05 | 95 | 1016.3 |
| 20260507131052 | 8 | 236 | 1.6 | 4.8 | 0.00 | 0.66 | 0.05 | 95 | 1016.3 |
| 20260507130547 | 8 | 290 | 0.0 | 0.0 | 0.00 | 0.66 | 0.05 | 95 | 1016.3 |
| 20260507130057 | 8 | 302 | 0.0 | 3.2 | 0.00 | 0.66 | 0.05 | 95 | 1016.3 |
| 20260507125551 | 8 | 296 | 0.0 | 3.2 | 0.00 | 0.66 | 0.05 | 95 | 1016.2 |
| 20260507125043 | 8 | 59 | 0.0 | 1.6 | 0.00 | 0.76 | 0.05 | 96 | 1016.3 |
| 20260507124555 | 8 | 37 | 0.0 | 1.6 | 0.00 | 0.76 | 0.05 | 96 | 1016.4 |
| 20260507124049 | 8 | 115 | 0.0 | 0.0 | 0.00 | 0.76 | 0.05 | 96 | 1016.4 |
| 20260507123542 | 8 | 114 | 0.0 | 0.0 | 0.03 | 0.76 | 0.05 | 95 | 1016.4 |
| 20260507123054 | 8 | 114 | 0.0 | 0.0 | 0.03 | 0.76 | 0.05 | 96 | 1016.5 |
| 20260507122546 | 8 | 114 | 0.0 | 0.0 | 0.03 | 0.76 | 0.05 | 96 | 1016.4 |
| 20260507122042 | 8 | 114 | 0.0 | 3.2 | 0.03 | 0.76 | 0.05 | 95 | 1016.5 |
| 20260507121552 | 8 | 113 | 0.0 | 3.2 | 0.03 | 0.76 | 0.05 | 96 | 1016.5 |
| 20260507121047 | 8 | 113 | 0.0 | 3.2 | 0.03 | 0.76 | 0.05 | 96 | 1016.5 |
| 20260507120541 | 8 | 163 | 0.0 | 1.6 | 0.03 | 0.76 | 0.05 | 96 | 1016.5 |
| 20260507120052 | 8 | 163 | 0.0 | 1.6 | 0.03 | 0.76 | 0.05 | 96 | 1016.4 |
| 20260507115545 | 8 | 174 | 0.0 | 3.2 | 0.03 | 0.76 | 0.05 | 96 | 1016.4 |
| 20260507115038 | 8 | 174 | 0.0 | 3.2 | 0.03 | 0.99 | 0.05 | 96 | 1016.4 |
| 20260507114551 | 8 | 166 | 0.0 | 1.6 | 0.03 | 0.99 | 0.05 | 96 | 1016.2 |
| 20260507114045 | 8 | 166 | 0.0 | 0.0 | 0.00 | 0.97 | 0.03 | 96 | 1016.3 |
| 20260507113538 | 8 | 166 | 0.0 | 0.0 | 0.00 | 0.97 | 0.03 | 96 | 1016.3 |
| 20260507113049 | 8 | 166 | 0.0 | 0.0 | 0.00 | 0.97 | 0.03 | 96 | 1016.0 |
| 20260507112543 | 8 | 166 | 0.0 | 0.0 | 0.00 | 0.97 | 0.03 | 96 | 1016.1 |
| 20260507112037 | 8 | 166 | 0.0 | 0.0 | 0.00 | 0.97 | 0.03 | 95 | 1015.7 |
| 20260507111550 | 7 | 166 | 0.0 | 0.0 | 0.00 | 0.97 | 0.03 | 96 | 1015.6 |
| 20260507111044 | 7 | 166 | 0.0 | 4.8 | 0.00 | 0.97 | 0.03 | 95 | 1015.6 |
| 20260507110538 | 7 | 166 | 1.6 | 4.8 | 0.00 | 0.97 | 0.03 | 95 | 1015.6 |
| 20260507110048 | 7 | 203 | 0.0 | 3.2 | 0.00 | 0.97 | 0.03 | 95 | 1015.5 |
| 20260507105541 | 7 | 203 | 0.0 | 0.0 | 0.00 | 0.97 | 0.03 | 96 | 1015.4 |
| 20260507105037 | 7 | 203 | 0.0 | 0.0 | 0.00 | 1.30 | 0.03 | 96 | 1015.4 |
| 20260507104550 | 7 | 203 | 0.0 | 0.0 | 0.00 | 1.30 | 0.03 | 96 | 1015.3 |
| 20260507104044 | 7 | 203 | 0.0 | 0.0 | 0.00 | 1.30 | 0.03 | 96 | 1015.3 |
| 20260507103539 | 7 | 203 | 0.0 | 4.8 | 0.00 | 1.30 | 0.03 | 95 | 1015.2 |
| 20260507103052 | 7 | 193 | 0.0 | 6.4 | 0.00 | 1.30 | 0.03 | 95 | 1015.2 |
| 20260507102546 | 7 | 277 | 3.2 | 6.4 | 0.00 | 1.30 | 0.03 | 96 | 1015.4 |
| 20260507102041 | 7 | 254 | 1.6 | 4.8 | 0.00 | 1.30 | 0.03 | 95 | 1015.3 |
| 20260507101556 | 7 | 227 | 0.0 | 0.0 | 0.00 | 1.30 | 0.03 | 95 | 1015.3 |
| 20260507101053 | 7 | 266 | 0.0 | 0.0 | 0.00 | 1.30 | 0.03 | 95 | 1015.3 |
| 20260507100544 | 7 | 232 | 0.0 | 0.0 | 0.00 | 1.30 | 0.03 | 95 | 1015.2 |
| 20260507100053 | 7 | 232 | 0.0 | 4.8 | 0.00 | 1.30 | 0.03 | 95 | 1015.1 |
| 20260507095547 | 7 | 245 | 0.0 | 4.8 | 0.00 | 1.30 | 0.03 | 95 | 1015.1 |
| 20260507095042 | 7 | 263 | 0.0 | 3.2 | 0.00 | 1.70 | 0.03 | 95 | 1015.0 |
| 20260507094556 | 7 | 263 | 0.0 | 3.2 | 0.00 | 1.70 | 0.03 | 95 | 1015.0 |
| 20260507094050 | 7 | 263 | 0.0 | 3.2 | 0.00 | 1.70 | 0.03 | 95 | 1015.1 |
| 20260507093544 | 7 | 198 | 0.0 | 0.0 | 0.00 | 1.70 | 0.03 | 95 | 1014.9 |
| 20260507093058 | 7 | 198 | 0.0 | 0.0 | 0.00 | 1.70 | 0.03 | 95 | 1015.1 |
| 20260507092553 | 7 | 198 | 0.0 | 0.0 | 0.00 | 1.70 | 0.03 | 95 | 1015.1 |
| 20260507092046 | 7 | 198 | 0.0 | 0.0 | 0.00 | 1.70 | 0.03 | 95 | 1015.0 |
| 20260507091558 | 7 | 198 | 0.0 | 0.0 | 0.00 | 1.70 | 0.03 | 94 | 1015.0 |
| 20260507091054 | 7 | 198 | 0.0 | 0.0 | 0.00 | 1.70 | 0.03 | 94 | 1014.9 |
| 20260507090546 | 7 | 198 | 0.0 | 0.0 | 0.00 | 1.70 | 0.03 | 94 | 1014.9 |
| 20260507090100 | 7 | 198 | 0.0 | 0.0 | 0.00 | 1.70 | 0.03 | 94 | 1014.8 |
| 20260507085555 | 7 | 198 | 0.0 | 0.0 | 0.00 | 1.70 | 0.03 | 94 | 1015.0 |
| 20260507085050 | 7 | 198 | 0.0 | 0.0 | 0.00 | 1.73 | 0.03 | 95 | 1014.8 |
| 20260507084502 | 7 | 198 | 0.0 | 0.0 | 0.00 | 1.73 | 0.03 | 95 | 1014.9 |
| 20260507084056 | 7 | 198 | 0.0 | 0.0 | 0.00 | 1.73 | 0.03 | 95 | 1014.9 |
| 20260507083549 | 8 | 198 | 0.0 | 0.0 | 0.00 | 1.73 | 0.03 | 95 | 1015.0 |
| 20260507083001 | 8 | 198 | 0.0 | 0.0 | 0.00 | 1.73 | 0.03 | 94 | 1015.0 |
| 20260507082556 | 8 | 198 | 0.0 | 0.0 | 0.00 | 1.73 | 0.03 | 94 | 1015.1 |
| 20260507082057 | 8 | 198 | 0.0 | 0.0 | 0.00 | 1.73 | 0.03 | 94 | 1015.0 |
| 20260507081505 | 8 | 198 | 0.0 | 0.0 | 0.00 | 1.73 | 0.03 | 95 | 1014.9 |
| 20260507081100 | 8 | 198 | 0.0 | 0.0 | 0.00 | 1.73 | 0.03 | 95 | 1015.0 |
| 20260507080555 | 8 | 198 | 0.0 | 0.0 | 0.00 | 1.73 | 0.03 | 95 | 1015.0 |
| 20260507080006 | 8 | 198 | 0.0 | 0.0 | 0.03 | 1.73 | 0.03 | 95 | 1015.1 |
| 20260507075601 | 8 | 198 | 0.0 | 0.0 | 0.03 | 1.73 | 0.03 | 95 | 1015.0 |
| 20260507075055 | 8 | 198 | 0.0 | 0.0 | 0.03 | 1.73 | 0.03 | 94 | 1015.1 |
| 20260507074510 | 8 | 198 | 0.0 | 4.8 | 0.05 | 1.73 | 0.03 | 94 | 1015.1 |
| 20260507074007 | 8 | 198 | 0.0 | 4.8 | 0.05 | 1.73 | 0.03 | 94 | 1015.0 |
| 20260507073558 | 8 | 198 | 1.6 | 4.8 | 0.05 | 1.73 | 0.03 | 94 | 1014.9 |
| 20260507073009 | 8 | 198 | 1.6 | 4.8 | 0.05 | 1.73 | 0.03 | 94 | 1015.0 |
| 20260507072503 | 8 | 196 | 3.2 | 6.4 | 0.05 | 1.73 | 0.03 | 95 | 1014.9 |
| 20260507072059 | 8 | 184 | 1.6 | 6.4 | 0.05 | 1.73 | 0.03 | 95 | 1014.9 |
| 20260507071528 | 8 | 236 | 0.0 | 3.2 | 0.05 | 1.73 | 0.03 | 95 | 1014.9 |
| 20260507071006 | 8 | 170 | 0.0 | 6.4 | 0.05 | 1.73 | 0.03 | 95 | 1014.9 |
| 20260507070600 | 8 | 242 | 1.6 | 6.4 | 0.05 | 1.73 | 0.03 | 95 | 1014.9 |
| 20260507070033 | 8 | 246 | 1.6 | 4.8 | 0.03 | 1.70 | 0.00 | 95 | 1014.8 |
| 20260507065530 | 8 | 208 | 0.0 | 0.0 | 0.03 | 1.70 | 0.00 | 95 | 1014.9 |
| 20260507065025 | 8 | 208 | 0.0 | 3.2 | 0.03 | 1.70 | 1.70 | 95 | 1014.9 |
| 20260507064536 | 8 | 208 | 0.0 | 4.8 | 0.00 | 1.68 | 1.68 | 94 | 1014.9 |
| 20260507064031 | 8 | 208 | 0.0 | 4.8 | 0.00 | 1.68 | 1.68 | 94 | 1014.9 |
| 20260507063525 | 8 | 208 | 1.6 | 4.8 | 0.00 | 1.68 | 1.68 | 94 | 1014.9 |
| 20260507063043 | 8 | 208 | 3.2 | 4.8 | 0.03 | 1.68 | 1.68 | 94 | 1014.9 |
| 20260507062533 | 8 | 219 | 0.0 | 0.0 | 0.03 | 1.68 | 1.68 | 95 | 1014.9 |
| 20260507062026 | 8 | 219 | 0.0 | 0.0 | 0.03 | 1.68 | 1.68 | 95 | 1014.8 |
| 20260507061540 | 8 | 219 | 0.0 | 3.2 | 0.03 | 1.68 | 1.68 | 95 | 1014.8 |
| 20260507061032 | 8 | 219 | 0.0 | 4.8 | 0.05 | 1.68 | 1.68 | 95 | 1014.8 |
| 20260507060527 | 8 | 219 | 1.6 | 4.8 | 0.05 | 1.68 | 1.68 | 95 | 1014.9 |
| 20260507060039 | 9 | 230 | 1.6 | 4.8 | 0.05 | 1.68 | 1.68 | 94 | 1014.9 |
| 20260507055532 | 9 | 223 | 0.0 | 3.2 | 0.05 | 1.68 | 1.68 | 94 | 1015.0 |
| 20260507055026 | 9 | 194 | 0.0 | 3.2 | 0.05 | 1.68 | 1.68 | 95 | 1015.1 |
| 20260507054541 | 9 | 194 | 0.0 | 3.2 | 0.05 | 1.68 | 1.68 | 94 | 1015.2 |
| 20260507054035 | 9 | 225 | 0.0 | 4.8 | 0.05 | 1.68 | 1.68 | 94 | 1015.2 |
| 20260507053532 | 9 | 225 | 0.0 | 4.8 | 0.05 | 1.68 | 1.68 | 94 | 1015.3 |
| 20260507053110 | 9 | 225 | 0.0 | 3.2 | 0.03 | 1.65 | 1.65 | 95 | 1015.3 |
| 20260507052538 | 9 | 225 | 0.0 | 0.0 | 0.03 | 1.65 | 1.65 | 95 | 1015.2 |
| 20260507052032 | 9 | 225 | 0.0 | 0.0 | 0.03 | 1.65 | 1.65 | 95 | 1015.2 |
| 20260507051552 | 9 | 225 | 0.0 | 0.0 | 0.03 | 1.65 | 1.65 | 95 | 1015.3 |
| 20260507051041 | 9 | 225 | 0.0 | 0.0 | 0.00 | 1.63 | 1.63 | 94 | 1015.3 |
| 20260507050536 | 9 | 225 | 0.0 | 0.0 | 0.00 | 1.63 | 1.63 | 95 | 1015.3 |
| 20260507050047 | 9 | 225 | 0.0 | 0.0 | 0.00 | 1.63 | 1.63 | 95 | 1015.3 |
| 20260507045544 | 9 | 225 | 0.0 | 0.0 | 0.00 | 1.63 | 1.63 | 95 | 1015.2 |
| 20260507045035 | 9 | 226 | 0.0 | 1.6 | 0.03 | 1.63 | 1.63 | 95 | 1015.4 |
| 20260507044554 | 9 | 227 | 0.0 | 1.6 | 0.03 | 1.63 | 1.63 | 94 | 1015.4 |